When you browse on this site, cookies collect data to enhance your experience and personalize the content and advertising you see.
Visit our Privacy Policy to learn more. By continuing to use the site, you agree to this use of cookies and data.
  • In France
  • List of Countries
  • For 7 days
  • Water Temperature
  • Satellite Maps
  • Weather Map
  • Weather Widgets
  • user-avatar
    Login

    Hourly Weather Morozovka

    Today, 16 November, Friday

    Time Temperature Precipitation Wind Pressure Humidity
    00:00 +1°C° 0 mm 1 mps 763 mmHg 91%
    01:00 0°C° 0 mm 1 mps 763 mmHg 90%
    02:00 -1°C° 0 mm 1 mps 763 mmHg 86%
    03:00 -1°C° 0 mm 1 mps 764 mmHg 85%
    04:00 -1°C° 0 mm 1 mps 764 mmHg 84%
    05:00 -2°C° 0 mm 1 mps 764 mmHg 83%
    06:00 -2°C° 0 mm 1 mps 764 mmHg 82%
    07:00 -2°C° 0 mm 1 mps 765 mmHg 81%
    08:00 -2°C° 0 mm 1 mps 765 mmHg 79%
    09:00 -1°C° 0 mm 1 mps 765 mmHg 75%
    10:00 0°C° 0 mm 1 mps 765 mmHg 71%
    11:00 +1°C° 0 mm 1 mps 766 mmHg 67%
    12:00 +1°C° 0 mm 1 mps 766 mmHg 68%
    13:00 +2°C° 0 mm 1 mps 766 mmHg 70%
    14:00 +1°C° 0 mm 0 mps 766 mmHg 74%
    15:00 +1°C° 0 mm 1 mps 766 mmHg 74%
    16:00 0°C° 0 mm 1 mps 766 mmHg 75%
    17:00 -1°C° 0 mm 1 mps 766 mmHg 76%
    18:00 -1°C° 0 mm 1 mps 766 mmHg 75%
    19:00 -2°C° 0 mm 1 mps 766 mmHg 74%
    20:00 -2°C° 0 mm 1 mps 766 mmHg 74%
    21:00 -2°C° 0 mm 1 mps 766 mmHg 72%
    22:00 -2°C° 0 mm 1 mps 766 mmHg 71%
    23:00 -2°C° 0 mm 1 mps 766 mmHg 70%

    Tomorrow, 17 November, Saturday

    Time Temperature Precipitation Wind Pressure Humidity
    00:00 -3°C° 0 mm 0 mps 766 mmHg 69%
    01:00 -3°C° 0 mm 0 mps 766 mmHg 67%
    02:00 -3°C° 0 mm 0 mps 766 mmHg 66%
    03:00 -4°C° 0 mm 0 mps 766 mmHg 66%
    04:00 -4°C° 0 mm 0 mps 766 mmHg 65%
    05:00 -3°C° 0 mm 1 mps 765 mmHg 65%
    06:00 -3°C° 0 mm 1 mps 765 mmHg 65%
    07:00 -3°C° 0 mm 1 mps 765 mmHg 66%
    08:00 -3°C° 0 mm 1 mps 765 mmHg 67%
    09:00 -2°C° 0 mm 1 mps 764 mmHg 65%
    10:00 0°C° 0 mm 1 mps 764 mmHg 64%
    11:00 -1°C° 0 mm 2 mps 764 mmHg 63%
    12:00 -1°C° 0 mm 2 mps 763 mmHg 65%
    13:00 -1°C° 0 mm 2 mps 762 mmHg 67%
    14:00 -1°C° 0 mm 2 mps 762 mmHg 69%
    15:00 -1°C° 0 mm 3 mps 761 mmHg 71%
    16:00 -1°C° 0 mm 3 mps 761 mmHg 73%
    17:00 -2°C° 0 mm 3 mps 760 mmHg 75%
    18:00 -2°C° 0 mm 3 mps 759 mmHg 78%
    19:00 -2°C° 0 mm 3 mps 759 mmHg 80%
    20:00 -2°C° 0 mm 3 mps 758 mmHg 82%
    21:00 -3°C° 0 mm 4 mps 757 mmHg 85%
    22:00 -3°C° 0 mm 4 mps 756 mmHg 88%
    23:00 -3°C° 0 mm 4 mps 756 mmHg 91%

    Day after tomorrow, 18 November, Sunday

    Time Temperature Precipitation Wind Pressure Humidity
    00:00 -3°C° 0.1 mm 4 mps 755 mmHg 92%
    01:00 -2°C° 0.1 mm 4 mps 754 mmHg 93%
    02:00 -2°C° 0.1 mm 4 mps 753 mmHg 94%
    03:00 -1°C° 0.1 mm 4 mps 752 mmHg 94%
    04:00 -1°C° 0.1 mm 4 mps 751 mmHg 95%
    05:00 -1°C° 0.1 mm 4 mps 750 mmHg 96%
    06:00 -1°C° 0.1 mm 4 mps 750 mmHg 96%
    07:00 -1°C° 0.1 mm 4 mps 750 mmHg 96%
    08:00 0°C° 0.1 mm 3 mps 749 mmHg 96%
    09:00 +1°C° 0.1 mm 3 mps 749 mmHg 97%
    10:00 +1°C° 0.1 mm 3 mps 749 mmHg 97%
    11:00 +1°C° 0.1 mm 3 mps 748 mmHg 98%
    12:00 +2°C° 0.3 mm 2 mps 748 mmHg 98%
    13:00 +2°C° 0.3 mm 2 mps 748 mmHg 98%
    14:00 +2°C° 0.3 mm 2 mps 748 mmHg 98%
    15:00 +2°C° 0.2 mm 2 mps 748 mmHg 98%
    16:00 +2°C° 0.2 mm 2 mps 748 mmHg 97%
    17:00 +2°C° 0.2 mm 2 mps 748 mmHg 97%
    18:00 +1°C° 0.3 mm 3 mps 748 mmHg 96%
    19:00 +1°C° 0.3 mm 3 mps 748 mmHg 95%
    20:00 0°C° 0.3 mm 4 mps 748 mmHg 93%
    21:00 0°C° 0.1 mm 4 mps 748 mmHg 93%
    22:00 -1°C° 0.1 mm 4 mps 748 mmHg 93%
    23:00 -1°C° 0.1 mm 4 mps 748 mmHg 92%

    19 November, Monday

    Time Temperature Precipitation Wind Pressure Humidity
    00:00 0°C° 0.1 mm 3 mps 749 mmHg 93%
    01:00 0°C° 0.1 mm 3 mps 749 mmHg 94%
    02:00 0°C° 0.1 mm 3 mps 749 mmHg 94%
    03:00 0°C° 0.1 mm 3 mps 749 mmHg 94%
    04:00 0°C° 0.1 mm 3 mps 750 mmHg 95%
    05:00 0°C° 0.1 mm 3 mps 750 mmHg 95%
    06:00 0°C° 0.1 mm 3 mps 750 mmHg 95%
    07:00 0°C° 0.1 mm 3 mps 750 mmHg 95%
    08:00 0°C° 0.1 mm 3 mps 751 mmHg 94%
    09:00 0°C° 0.1 mm 3 mps 751 mmHg 94%
    10:00 +1°C° 0.1 mm 3 mps 752 mmHg 94%
    11:00 +1°C° 0.1 mm 3 mps 752 mmHg 93%
    12:00 +1°C° 0.1 mm 3 mps 752 mmHg 93%
    13:00 +1°C° 0.1 mm 3 mps 752 mmHg 93%
    14:00 +1°C° 0.1 mm 3 mps 752 mmHg 93%
    15:00 0°C° 0.1 mm 3 mps 752 mmHg 93%
    16:00 0°C° 0.1 mm 3 mps 753 mmHg 93%
    17:00 0°C° 0.1 mm 3 mps 753 mmHg 93%
    18:00 0°C° 0.1 mm 3 mps 753 mmHg 94%
    19:00 0°C° 0.1 mm 3 mps 753 mmHg 94%
    20:00 -1°C° 0.1 mm 3 mps 753 mmHg 94%
    21:00 -1°C° 0.1 mm 3 mps 753 mmHg 94%
    22:00 -1°C° 0.1 mm 3 mps 753 mmHg 94%
    23:00 -1°C° 0.1 mm 3 mps 754 mmHg 94%

    20 November, Tuesday

    Time Temperature Precipitation Wind Pressure Humidity
    00:00 -1°C° 0.1 mm 3 mps 754 mmHg 94%
    01:00 -1°C° 0.1 mm 3 mps 754 mmHg 93%
    02:00 -2°C° 0.1 mm 3 mps 754 mmHg 93%
    03:00 -2°C° 0 mm 3 mps 754 mmHg 92%
    04:00 -4°C° 0 mm 3 mps 754 mmHg 91%
    05:00 -4°C° 0 mm 2 mps 753 mmHg 90%
    06:00 -4°C° 0 mm 2 mps 753 mmHg 90%
    07:00 -5°C° 0 mm 2 mps 753 mmHg 89%
    08:00 -5°C° 0 mm 2 mps 753 mmHg 89%
    09:00 -4°C° 0 mm 2 mps 753 mmHg 87%
    10:00 -3°C° 0 mm 2 mps 753 mmHg 85%
    11:00 -3°C° 0 mm 2 mps 753 mmHg 82%
    12:00 -2°C° 0 mm 2 mps 753 mmHg 84%
    13:00 -2°C° 0 mm 2 mps 753 mmHg 85%
    14:00 -2°C° 0 mm 2 mps 752 mmHg 87%
    15:00 -2°C° 0 mm 2 mps 752 mmHg 89%
    16:00 -2°C° 0 mm 2 mps 752 mmHg 91%
    17:00 -3°C° 0 mm 2 mps 752 mmHg 94%
    18:00 -3°C° 0 mm 2 mps 752 mmHg 94%
    19:00 -2°C° 0 mm 2 mps 751 mmHg 94%
    20:00 -2°C° 0 mm 2 mps 751 mmHg 94%
    21:00 -2°C° 0 mm 2 mps 751 mmHg 94%
    22:00 -2°C° 0 mm 2 mps 751 mmHg 94%
    23:00 0°C° 0 mm 1 mps 751 mmHg 94%

    21 November, Wednesday

    Time Temperature Precipitation Wind Pressure Humidity
    00:00 -2°C° 0 mm 2 mps 751 mmHg 94%
    01:00 -2°C° 0 mm 2 mps 751 mmHg 94%
    02:00 -2°C° 0 mm 2 mps 751 mmHg 94%
    03:00 -2°C° 0 mm 2 mps 751 mmHg 94%
    04:00 -2°C° 0 mm 2 mps 751 mmHg 93%
    05:00 -2°C° 0 mm 3 mps 751 mmHg 93%
    06:00 -2°C° 0 mm 3 mps 751 mmHg 93%
    07:00 -2°C° 0 mm 3 mps 751 mmHg 92%
    08:00 -2°C° 0 mm 3 mps 751 mmHg 92%
    09:00 -1°C° 0 mm 3 mps 751 mmHg 91%
    10:00 -2°C° 0 mm 4 mps 751 mmHg 91%
    11:00 -2°C° 0 mm 4 mps 752 mmHg 90%
    12:00 -2°C° 0 mm 4 mps 751 mmHg 90%
    13:00 -1°C° 0 mm 4 mps 751 mmHg 90%
    14:00 -1°C° 0 mm 4 mps 751 mmHg 90%
    15:00 -1°C° 0 mm 5 mps 751 mmHg 89%
    16:00 -1°C° 0 mm 5 mps 752 mmHg 89%
    17:00 -2°C° 0 mm 5 mps 752 mmHg 89%
    18:00 -2°C° 0 mm 5 mps 752 mmHg 88%
    19:00 -2°C° 0 mm 5 mps 752 mmHg 88%
    20:00 -2°C° 0 mm 5 mps 752 mmHg 88%
    21:00 -2°C° 0 mm 5 mps 752 mmHg 88%
    22:00 -2°C° 0 mm 5 mps 752 mmHg 88%
    23:00 -4°C° 0 mm 5 mps 752 mmHg 89%
    Show more